Helicity
189 152 117 93 96 102 114 98 100 36 31 30 31 33 38 79 109 112 108 113 102 127 146 170 139 68 25
161 136 121 99 108 101 105 86 92 67 37 17 28 25 20 32 83 120 105 99 90 101 105 123 99 141 92
181 173 164 145 128 108 87 86 109 73 45 46 41 32 21 36 65 118 124 108 108 95 113 105 108 92 108
196 189 175 150 129 116 65 86 107 95 69 45 18 24 26 30 55 116 160 131 107 152 134 128 168 98 73
185 178 156 124 105 103 122 114 120 98 97 94 83 71 53 19 25 47 102 182 135 137 108 126 162 172 159
143 169 135 141 128 128 142 141 37 105 86 84 65 60 64 59 27 40 71 97 124 87 89 111 129 124 134
133 137 122 116 115 128 123 131 103 43 109 61 82 20 54 11 5 43 76 92 111 135 104 91 97 106 135
118 115 114 119 111 60 -0 7 19 60 93 29 -72 -23 -42 -20 -3 35 73 121 141 151 147 107 87 103 130
38 23 5 -1 -7 -47 -15 -45 -12 -14 145 -29 -76 -74 -83 -26 29 70 94 151 155 220 96 98 71 97 124
48 45 46 58 18 18 -38 -46 -34 -6 -15 -68 -70 -55 -16 11 17 22 -13 58 99 178 172 99 94 78 54
31 110 125 112 103 76 36 -33 -60 -13 34 -19 1 9 11 68 64 64 55 64 96 126 107 77 59 45 37
114 103 58 23 16 31 56 73 85 100 130 101 75 74 90 66 86 83 85 109 86 76 37 16 14 -0 -4
-24 17 33 79 135 165 180 170 153 155 130 64 12 -36 -29 48 99 123 128 131 113 138 231 325 253 250 292
30 72 103 135 166 186 186 125 47 11 -12 -9 -21 -17 -0 60 64 152 154 109 100 243 381 482 511 472 431
102 140 168 182 208 216 92 98 83 102 84 29 -5 -4 20 95 74 79 78 90 152 225 379 413 561 547 518
163 184 183 179 183 109 86 74 103 131 152 99 80 58 63 70 154 138 131 178 179 253 262 301 355 355 441
177 174 189 188 136 125 113 124 129 136 136 135 139 118 63 97 164 246 214 239 203 306 273 264 283 306 232
Wind_Speed
111 107 111 111 109 101 100 98 98 103 110 114 116 118 124 128 127 123 118 114 111 110 111 109 108 113 113
107 108 107 110 104 105 100 98 100 104 111 116 117 125 120 122 122 120 118 116 110 107 104 104 102 101 104
108 102 100 98 103 101 100 105 103 99 102 107 111 116 117 119 118 118 117 114 111 106 102 97 98 97 96
97 98 95 97 93 103 115 100 100 94 102 103 103 106 111 113 114 113 109 109 107 103 98 96 89 93 89
98 97 95 104 105 104 100 101 95 94 97 90 88 87 95 104 107 106 107 104 104 103 99 98 96 91 85
99 100 103 102 98 93 94 95 120 84 88 92 90 98 94 94 101 104 105 110 112 109 109 104 99 95 91
97 96 99 91 87 79 68 69 57 95 83 82 84 96 85 93 92 100 105 104 106 107 107 103 98 93 90
82 83 76 67 57 50 56 64 58 43 42 67 83 66 97 94 91 93 94 100 103 106 106 102 97 93 89
76 55 53 52 50 54 52 57 68 51 67 63 68 74 84 86 87 86 79 72 82 88 93 94 93 91 89
52 44 41 41 42 40 51 62 63 64 37 60 64 66 76 69 60 63 71 76 77 80 81 80 81 81 85
41 45 53 56 53 43 38 51 60 55 55 46 47 53 60 70 67 66 68 68 68 70 75 80 84 84 82
51 55 48 44 46 46 48 45 41 45 46 41 38 43 51 61 64 58 57 56 56 59 64 73 76 73 73
52 50 50 50 47 39 35 31 28 28 28 21 11 30 44 45 46 47 45 41 37 34 26 24 27 29 24
48 48 44 36 33 27 25 22 12 12 10 17 16 18 34 36 38 40 40 35 31 29 15 12 15 23 23
40 36 31 28 27 24 12 11 7 8 16 13 17 24 24 26 31 34 33 29 27 24 9 9 11 15 19
28 24 24 25 22 22 15 16 10 8 8 16 4 17 31 27 13 23 24 19 15 11 8 9 12 16 18
24 24 22 21 23 22 20 14 13 8 7 6 2 19 27 29 23 9 20 17 9 6 6 9 15 17 20
Wind_Direction
317 318 316 315 315 314 313 311 310 306 303 300 296 291 286 282 279 277 277 277 276 275 273 274 273 266 262
318 319 317 317 316 315 315 313 311 308 304 300 297 293 289 282 278 276 274 274 274 274 274 274 274 271 266
318 319 318 319 317 316 315 314 313 311 308 306 302 296 290 284 277 274 273 271 271 273 273 274 272 272 273
319 319 320 321 319 319 316 317 315 315 311 308 304 299 291 284 277 274 272 270 267 271 271 271 275 270 272
320 321 322 320 320 320 319 318 317 317 314 312 311 306 298 287 280 272 271 269 268 269 267 267 268 270 272
323 322 321 321 322 323 321 320 303 320 318 314 312 304 298 291 280 274 270 268 267 265 264 264 265 266 267
322 321 321 323 324 321 319 319 307 298 319 273 314 285 303 291 282 278 272 268 266 265 263 262 262 263 263
324 324 324 321 315 304 286 280 279 291 319 270 280 266 288 284 283 280 274 270 267 264 262 260 261 261 261
328 314 296 293 291 285 282 280 278 276 325 272 273 272 279 276 279 272 274 277 273 270 260 258 258 257 255
329 324 316 311 301 298 281 277 277 276 286 272 271 271 279 268 273 281 279 275 272 265 259 256 254 252 249
306 329 334 334 332 323 299 275 273 273 273 267 263 262 260 268 270 275 275 271 269 263 254 245 240 240 244
338 335 326 305 293 287 280 274 269 267 268 261 254 252 254 262 268 270 267 263 263 251 242 231 228 231 234
299 296 295 293 292 290 286 280 277 270 263 255 225 242 250 246 246 249 247 248 251 239 234 232 226 222 221
297 297 296 298 301 305 308 301 305 28 22 264 237 213 242 236 219 221 223 231 228 220 218 209 219 216 213
302 304 307 307 309 311 326 326 342 324 294 275 250 209 202 267 217 217 219 217 214 214 182 174 194 197 180
311 316 313 311 316 314 320 315 323 351 338 309 226 179 167 191 287 219 211 205 205 201 189 140 170 187 176
312 310 310 309 308 306 308 311 312 335 34 20 260 139 162 176 201 280 201 198 166 124 141 142 143 165 145